OSLO / FORNEBU current weather conditions

sailwx.info

Last reported at 2015-Jan-19 03:11 UTC.
Time now 2015-Mar-05 14:42 UTC

Location: N 59°54' E 010°38'.
View on Google Maps.

See reports from other nearby stations

  
Tides and Currents Weather Stations Pressure Air Temp Water Temp Dewpoint Dewpoint Depression Visibility Wind Speed Wind Dir Waves Ship Positions
date/time (UTC)wind fromknots sea level pressurealtimeterstation pressurevisibilityair tempwater tempwave heightnotes
2015-Mar-05 13:20 210 42 5.4 8.0
2015-Mar-05 12:50 210 42 4.9 7.0 Light rain.
2015-Mar-05 12:20 210 40 4.3 7.0 Light rain.
2015-Mar-05 11:50 210 39 1.0 7.0 Light rain. Mist.
2015-Mar-05 11:20 210 37 2.1 7.0 Light rain. Mist.
2015-Mar-05 10:50 210 37 1.5 7.0 Light rain showers. Mist.
2015-Mar-05 10:20 210 35 2.7 7.0 Light rain showers.
2015-Mar-05 09:50 210 35 5.4 8.0 Light rain.
2015-Mar-05 09:20 210 36 5.4 7.0 Light rain showers.
2015-Mar-05 08:50 210 36 4.3 7.0 Light rain showers.
2015-Mar-05 08:20 210 36 3.2 7.0 Light rain.
2015-Mar-05 07:50 210 36 2.0 7.0 Light rain showers. Mist.
2015-Mar-05 07:20 210 37 1.5 7.0 Light rain. Mist.
2015-Mar-05 06:50 200 37 1.6 7.0 Light rain. Mist.
2015-Mar-05 06:20 200 40 1.2 6.0 Light rain. Mist.
2015-Mar-05 05:50 200 39 2.3 6.0 Light rain. Mist.
2015-Mar-05 05:20 190 38 3.8 6.0 Light rain.
2015-Mar-05 04:50 190 38 5.4 6.0 Light rain.
2015-Mar-05 04:20 200 34 3.8 5.0 Light rain.
2015-Mar-05 03:50 200 35 2.5 5.0 Light rain. Mist.
2015-Mar-05 03:20 200 31 2.7 5.0 Light rain.
2015-Mar-05 02:50 200 27 3.8 5.0 Light rain.
2015-Mar-05 02:20 200 24 5.4 4.0 Light rain.
2015-Mar-05 01:50 210 22 5.4 5.0 Light rain showers.
2015-Mar-05 01:20 220 20 5.4 5.0 Light rain showers.
2015-Mar-05 00:50 250 24 5.4 5.0 Light rain.
2015-Mar-05 00:20 220 16 5.4 6.0
2015-Mar-04 23:50 240 17 5.4 6.0
2015-Mar-04 23:20 240 16 5.4 6.0
2015-Mar-04 22:50 250 18 5.4 6.0
2015-Mar-04 22:20 260 19 5.4 6.0
2015-Mar-04 21:50 270 20 5.4 6.0
2015-Mar-04 21:20 5.4 6.0
2015-Mar-04 20:50 280 15 5.4 6.0
2015-Mar-04 20:20 300 15 5.4 5.0
2015-Mar-04 19:50 320 20 5.4 5.0
2015-Mar-04 19:20 300 19 5.4 5.0
2015-Mar-04 18:50 310 25 5.4 5.0
2015-Mar-04 18:20 310 26 5.4 5.0
2015-Mar-04 17:50 310 26 5.4 5.0
2015-Mar-04 17:20 300 20 5.4 5.0
2015-Mar-04 16:50 300 23 5.4 5.0
2015-Mar-04 16:20 300 26 5.4 4.0
2015-Mar-04 15:50 300 24 5.4 4.0 Light rain showers.
2015-Mar-04 15:20 290 20 5.4 4.0
2015-Mar-04 14:50 290 20 5.4 5.0
2015-Mar-04 14:20 300 18 5.4 4.0
2015-Mar-04 13:50 290 20 5.4 4.0
2015-Mar-04 13:20 310 27 5.4 3.0
2015-Mar-04 12:50 270 19 5.4 3.0 Light rain showers.
2015-Mar-04 12:20 300 23 5.4 4.0 Rain showers.
2015-Mar-04 11:50 280 18 5.4 5.0
2015-Mar-04 11:20 290 24 5.4 4.0 Light rain.
2015-Mar-04 10:50 310 18 5.4 6.0
2015-Mar-04 10:20 310 19 5.4 6.0
2015-Mar-04 09:50 310 19 5.4 5.0
2015-Mar-04 09:20 290 17 5.4 5.0
2015-Mar-04 08:50 300 13 5.4 5.0
2015-Mar-04 08:20 300 13 5.4 4.0
2015-Mar-04 07:50 300 14 5.4 4.0
2015-Mar-04 07:20 320 8 5.4 4.0 Light rain showers.
2015-Mar-04 06:50 270 17 3.8 5.0 Light rain snow.
2015-Mar-04 06:20 280 6 5.4 5.0
2015-Mar-04 05:50 320 13 5.4 5.0
2015-Mar-04 05:20 260 6 5.4 5.0
2015-Mar-04 04:50 250 5 5.4 5.0
2015-Mar-04 04:20 270 5 5.4 5.0
2015-Mar-04 03:50 280 5 5.4 5.0
2015-Mar-04 03:20 280 5 5.4 5.0
2015-Mar-04 02:50 270 7 5.4 5.0
2015-Mar-04 02:20 240 6 5.4 5.0
2015-Mar-04 01:50 220 7 5.4 5.0
2015-Mar-04 01:20 210 6 5.4 5.0
2015-Mar-04 00:50 230 5 5.4 4.0
2015-Mar-04 00:20 250 9 5.4 4.0
2015-Mar-03 23:50 220 11 5.4 4.0
2015-Mar-03 23:20 210 13 5.4 5.0
2015-Mar-03 22:50 200 12 5.4 5.0
2015-Mar-03 22:20 200 13 5.4 5.0
2015-Mar-03 21:50 200 11 5.4 5.0
2015-Mar-03 21:20 210 13 5.4 5.0
2015-Mar-03 20:50 210 14 5.4 5.0
2015-Mar-03 20:20 210 16 5.4 5.0
2015-Mar-03 19:50 210 13 5.4 4.0
2015-Mar-03 19:20 220 14 5.4 4.0
2015-Mar-03 18:50 210 17 5.4 4.0
2015-Mar-03 18:20 220 15 5.4 4.0
2015-Mar-03 17:50 220 16 5.4 4.0
2015-Mar-03 17:20 220 18 5.4 4.0
2015-Mar-03 16:50 230 20 5.4 4.0
2015-Mar-03 16:20 220 20 5.4 5.0
2015-Mar-03 15:50 230 24 5.4 4.0
2015-Mar-03 15:20 230 20 5.4 4.0 Light rain.
2015-Mar-03 14:50 220 20 5.4 4.0
2015-Mar-03 14:20 5.4 4.0